Year,Month,Day,Hour,Minute,Value (Times are PST for temperature in C)
2018,10,20,00,00,7.10
2018,10,20,00,01,7.10
2018,10,20,00,02,7.10
2018,10,20,00,03,7.10
2018,10,20,00,04,7.10
2018,10,20,00,05,7.00
2018,10,20,00,06,7.00
2018,10,20,00,07,7.00
2018,10,20,00,08,7.00
2018,10,20,00,09,6.90
2018,10,20,00,10,6.90
2018,10,20,00,11,7.00
2018,10,20,00,12,7.00
2018,10,20,00,13,7.00
2018,10,20,00,14,7.10
2018,10,20,00,15,7.10
2018,10,20,00,16,7.10
2018,10,20,00,17,7.10
2018,10,20,00,18,7.10
2018,10,20,00,19,7.10
2018,10,20,00,20,7.00
2018,10,20,00,21,7.00
2018,10,20,00,22,7.00
2018,10,20,00,23,7.10
2018,10,20,00,24,7.00
2018,10,20,00,25,7.00
2018,10,20,00,26,7.10
2018,10,20,00,27,7.00
2018,10,20,00,28,7.00
2018,10,20,00,29,7.00
2018,10,20,00,30,7.00
2018,10,20,00,31,7.00
2018,10,20,00,32,6.90
2018,10,20,00,33,6.90
2018,10,20,00,34,6.90
2018,10,20,00,35,6.90
2018,10,20,00,36,6.90
2018,10,20,00,37,6.90
2018,10,20,00,38,6.90
2018,10,20,00,39,6.90
2018,10,20,00,40,6.80
2018,10,20,00,41,6.80
2018,10,20,00,42,6.80
2018,10,20,00,43,6.80
2018,10,20,00,44,6.80
2018,10,20,00,45,6.80
2018,10,20,00,46,6.70
2018,10,20,00,47,6.70
2018,10,20,00,48,6.70
2018,10,20,00,49,6.70
2018,10,20,00,50,6.70
2018,10,20,00,51,6.70
2018,10,20,00,52,6.60
2018,10,20,00,53,6.60
2018,10,20,00,54,6.60
2018,10,20,00,55,6.60
2018,10,20,00,56,6.60
2018,10,20,00,57,6.50
2018,10,20,00,58,6.50
2018,10,20,00,59,6.50
2018,10,20,01,00,6.40
2018,10,20,01,01,6.40
2018,10,20,01,02,6.40
2018,10,20,01,03,6.30
2018,10,20,01,04,6.30
2018,10,20,01,05,6.30
2018,10,20,01,06,6.30
2018,10,20,01,07,6.20
2018,10,20,01,08,6.20
2018,10,20,01,09,6.20
2018,10,20,01,10,6.20
2018,10,20,01,11,6.20
2018,10,20,01,12,6.20
2018,10,20,01,13,6.20
2018,10,20,01,14,6.20
2018,10,20,01,15,6.20
2018,10,20,01,16,6.20
2018,10,20,01,17,6.20
2018,10,20,01,18,6.20
2018,10,20,01,19,6.10
2018,10,20,01,20,6.10
2018,10,20,01,21,6.10
2018,10,20,01,22,6.10
2018,10,20,01,23,6.00
2018,10,20,01,24,6.00
2018,10,20,01,25,6.00
2018,10,20,01,26,6.00
2018,10,20,01,27,5.90
2018,10,20,01,28,5.90
2018,10,20,01,29,5.90
2018,10,20,01,30,5.90
2018,10,20,01,31,5.90
2018,10,20,01,32,5.90
2018,10,20,01,33,5.90
2018,10,20,01,34,6.00
2018,10,20,01,35,6.00
2018,10,20,01,36,6.00
2018,10,20,01,37,6.00
2018,10,20,01,38,6.00
2018,10,20,01,39,6.00
2018,10,20,01,40,6.00
2018,10,20,01,41,6.00
2018,10,20,01,42,6.10
2018,10,20,01,43,6.10
2018,10,20,01,44,6.10
2018,10,20,01,45,6.10
2018,10,20,01,46,6.20
2018,10,20,01,47,6.20
2018,10,20,01,48,6.20
2018,10,20,01,49,6.20
2018,10,20,01,50,6.30
2018,10,20,01,51,6.30
2018,10,20,01,52,6.30
2018,10,20,01,53,6.20
2018,10,20,01,54,6.20
2018,10,20,01,55,6.20
2018,10,20,01,56,6.30
2018,10,20,01,57,6.30
2018,10,20,01,58,6.30
2018,10,20,01,59,6.30
2018,10,20,02,00,6.30
2018,10,20,02,01,6.30
2018,10,20,02,02,6.30
2018,10,20,02,03,6.20
2018,10,20,02,04,6.20
2018,10,20,02,05,6.20
2018,10,20,02,06,6.20
2018,10,20,02,07,6.20
2018,10,20,02,08,6.20
2018,10,20,02,09,6.20
2018,10,20,02,10,6.20
2018,10,20,02,11,6.30
2018,10,20,02,12,6.30
2018,10,20,02,13,6.30
2018,10,20,02,14,6.40
2018,10,20,02,15,6.40
2018,10,20,02,16,6.50
2018,10,20,02,17,6.50
2018,10,20,02,18,6.60
2018,10,20,02,19,6.60
2018,10,20,02,20,6.50
2018,10,20,02,21,6.50
2018,10,20,02,22,6.60
2018,10,20,02,23,6.60
2018,10,20,02,24,6.60
2018,10,20,02,25,6.70
2018,10,20,02,26,6.70
2018,10,20,02,27,6.70
2018,10,20,02,28,6.80
2018,10,20,02,29,6.80
2018,10,20,02,30,6.80
2018,10,20,02,31,6.80
2018,10,20,02,32,6.90
2018,10,20,02,33,6.90
2018,10,20,02,34,6.90
2018,10,20,02,35,6.90
2018,10,20,02,36,6.90
2018,10,20,02,37,6.90
2018,10,20,02,38,6.90
2018,10,20,02,39,6.90
2018,10,20,02,40,6.90
2018,10,20,02,41,6.90
2018,10,20,02,42,6.90
2018,10,20,02,43,6.90
2018,10,20,02,44,6.90
2018,10,20,02,45,6.90
2018,10,20,02,46,6.90
2018,10,20,02,47,6.90
2018,10,20,02,48,6.90
2018,10,20,02,49,7.00
2018,10,20,02,50,7.00
2018,10,20,02,51,7.00
2018,10,20,02,52,7.10
2018,10,20,02,53,7.20
2018,10,20,02,54,7.20
2018,10,20,02,55,7.30
2018,10,20,02,56,7.30
2018,10,20,02,57,7.40
2018,10,20,02,58,7.50
2018,10,20,02,59,7.50
2018,10,20,03,00,7.50
2018,10,20,03,01,7.50
2018,10,20,03,02,7.50
2018,10,20,03,03,7.50
2018,10,20,03,04,7.50
2018,10,20,03,05,7.50
2018,10,20,03,06,7.50
2018,10,20,03,07,7.50
2018,10,20,03,08,7.50
2018,10,20,03,09,7.50
2018,10,20,03,10,7.50
2018,10,20,03,11,7.60
2018,10,20,03,12,7.60
2018,10,20,03,13,7.60
2018,10,20,03,14,7.60
2018,10,20,03,15,7.60
2018,10,20,03,16,7.50
2018,10,20,03,17,7.50
2018,10,20,03,18,7.50
2018,10,20,03,19,7.50
2018,10,20,03,20,7.50
2018,10,20,03,21,7.50
2018,10,20,03,22,7.50
2018,10,20,03,23,7.50
2018,10,20,03,24,7.50
2018,10,20,03,25,7.50
2018,10,20,03,26,7.50
2018,10,20,03,27,7.50
2018,10,20,03,28,7.50
2018,10,20,03,29,7.50
2018,10,20,03,30,7.40
2018,10,20,03,31,7.40
2018,10,20,03,32,7.40
2018,10,20,03,33,7.30
2018,10,20,03,34,7.30
2018,10,20,03,35,7.30
2018,10,20,03,36,7.30
2018,10,20,03,37,7.20
2018,10,20,03,38,7.20
2018,10,20,03,39,7.20
2018,10,20,03,40,7.30
2018,10,20,03,41,7.30
2018,10,20,03,42,7.30
2018,10,20,03,43,7.30
2018,10,20,03,44,7.30
2018,10,20,03,45,7.30
2018,10,20,03,46,7.30
2018,10,20,03,47,7.40
2018,10,20,03,48,7.40
2018,10,20,03,49,7.40
2018,10,20,03,50,7.40
2018,10,20,03,51,7.40
2018,10,20,03,52,7.50
2018,10,20,03,53,7.50
2018,10,20,03,54,7.50
2018,10,20,03,55,7.50
2018,10,20,03,56,7.50
2018,10,20,03,57,7.60
2018,10,20,03,58,7.60
2018,10,20,03,59,7.60
2018,10,20,04,00,7.60
2018,10,20,04,01,7.60
2018,10,20,04,02,7.60
2018,10,20,04,03,7.60
2018,10,20,04,04,7.60
2018,10,20,04,05,7.60
2018,10,20,04,06,7.60
2018,10,20,04,07,7.60
2018,10,20,04,08,7.60
2018,10,20,04,09,7.60
2018,10,20,04,10,7.60
2018,10,20,04,11,7.60
2018,10,20,04,12,7.60
2018,10,20,04,13,7.60
2018,10,20,04,14,7.60
2018,10,20,04,15,7.60
2018,10,20,04,16,7.50
2018,10,20,04,17,7.50
2018,10,20,04,18,7.50
2018,10,20,04,19,7.40
2018,10,20,04,20,7.40
2018,10,20,04,21,7.40
2018,10,20,04,22,7.40
2018,10,20,04,23,7.30
2018,10,20,04,24,7.30
2018,10,20,04,25,7.30
2018,10,20,04,26,7.30
2018,10,20,04,27,7.30
2018,10,20,04,28,7.30
2018,10,20,04,29,7.30
2018,10,20,04,30,7.30
2018,10,20,04,31,7.30
2018,10,20,04,32,7.30
2018,10,20,04,33,7.30
2018,10,20,04,34,7.30
2018,10,20,04,35,7.30
2018,10,20,04,36,7.20
2018,10,20,04,37,7.20
2018,10,20,04,38,7.10
2018,10,20,04,39,7.10
2018,10,20,04,40,7.00
2018,10,20,04,41,7.00
2018,10,20,04,42,7.00
2018,10,20,04,43,6.90
2018,10,20,04,44,6.90
2018,10,20,04,45,6.90
2018,10,20,04,46,6.90
2018,10,20,04,47,6.80
2018,10,20,04,48,6.80
2018,10,20,04,49,6.80
2018,10,20,04,50,6.80
2018,10,20,04,51,6.80
2018,10,20,04,52,6.70
2018,10,20,04,53,6.70
2018,10,20,04,54,6.70
2018,10,20,04,55,6.60
2018,10,20,04,56,6.60
2018,10,20,04,57,6.60
2018,10,20,04,58,6.60
2018,10,20,04,59,6.50
2018,10,20,05,00,6.50
2018,10,20,05,01,6.40
2018,10,20,05,02,6.40
2018,10,20,05,03,6.40
2018,10,20,05,04,6.40
2018,10,20,05,05,6.40
2018,10,20,05,06,6.40
2018,10,20,05,07,6.40
2018,10,20,05,08,6.30
2018,10,20,05,09,6.30
2018,10,20,05,10,6.30
2018,10,20,05,11,6.30
2018,10,20,05,12,6.30
2018,10,20,05,13,6.30
2018,10,20,05,14,6.20
2018,10,20,05,15,6.20
2018,10,20,05,16,6.20
2018,10,20,05,17,6.20
2018,10,20,05,18,6.20
2018,10,20,05,19,6.20
2018,10,20,05,20,6.20
2018,10,20,05,21,6.10
2018,10,20,05,22,6.10
2018,10,20,05,23,6.10
2018,10,20,05,24,6.00
2018,10,20,05,25,6.00
2018,10,20,05,26,6.00
2018,10,20,05,27,6.00
2018,10,20,05,28,6.00
2018,10,20,05,29,6.10
2018,10,20,05,30,6.10
2018,10,20,05,31,6.10
2018,10,20,05,32,6.20
2018,10,20,05,33,6.20
2018,10,20,05,34,6.20
2018,10,20,05,35,6.20
2018,10,20,05,36,6.20
2018,10,20,05,37,6.20
2018,10,20,05,38,6.20
2018,10,20,05,39,6.20
2018,10,20,05,40,6.20
2018,10,20,05,41,6.20
2018,10,20,05,42,6.10
2018,10,20,05,43,6.10
2018,10,20,05,44,6.10
2018,10,20,05,45,6.10
2018,10,20,05,46,6.00
2018,10,20,05,47,6.10
2018,10,20,05,48,6.10
2018,10,20,05,49,6.10
2018,10,20,05,50,6.10
2018,10,20,05,51,6.10
2018,10,20,05,52,6.10
2018,10,20,05,53,6.10
2018,10,20,05,54,6.10
2018,10,20,05,55,6.00
2018,10,20,05,56,6.00
2018,10,20,05,57,5.90
2018,10,20,05,58,5.90
2018,10,20,05,59,5.90
2018,10,20,06,00,5.80
2018,10,20,06,01,5.80
2018,10,20,06,02,5.80
2018,10,20,06,03,5.80
2018,10,20,06,04,5.80
2018,10,20,06,05,5.80
2018,10,20,06,06,5.70
2018,10,20,06,07,5.70
2018,10,20,06,08,5.70
2018,10,20,06,09,5.60
2018,10,20,06,10,5.60
2018,10,20,06,11,5.60
2018,10,20,06,12,5.60
2018,10,20,06,13,5.50
2018,10,20,06,14,5.50
2018,10,20,06,15,5.50
2018,10,20,06,16,5.50
2018,10,20,06,17,5.50
2018,10,20,06,18,5.50
2018,10,20,06,19,5.50
2018,10,20,06,20,5.40
2018,10,20,06,21,5.40
2018,10,20,06,22,5.40
2018,10,20,06,23,5.40
2018,10,20,06,24,5.40
2018,10,20,06,25,5.40
2018,10,20,06,26,5.30
2018,10,20,06,27,5.40
2018,10,20,06,28,5.40
2018,10,20,06,29,5.40
2018,10,20,06,30,5.40
2018,10,20,06,31,5.40
2018,10,20,06,32,5.40
2018,10,20,06,33,5.40
2018,10,20,06,34,5.30
2018,10,20,06,35,5.30
2018,10,20,06,36,5.30
2018,10,20,06,37,5.30
2018,10,20,06,38,5.30
2018,10,20,06,39,5.30
2018,10,20,06,40,5.30
2018,10,20,06,41,5.30
2018,10,20,06,42,5.30
2018,10,20,06,43,5.30
2018,10,20,06,44,5.30
2018,10,20,06,45,5.30
2018,10,20,06,46,5.30
2018,10,20,06,47,5.30
2018,10,20,06,48,5.20
2018,10,20,06,49,5.20
2018,10,20,06,50,5.20
2018,10,20,06,51,5.20
2018,10,20,06,52,5.20
2018,10,20,06,53,5.20
2018,10,20,06,54,5.20
2018,10,20,06,55,5.20
2018,10,20,06,56,5.20
2018,10,20,06,57,5.20
2018,10,20,06,58,5.20
2018,10,20,06,59,5.20
2018,10,20,07,00,5.10
2018,10,20,07,01,5.10
2018,10,20,07,02,5.10
2018,10,20,07,03,5.10
2018,10,20,07,04,5.10
2018,10,20,07,05,5.10
2018,10,20,07,06,5.20
2018,10,20,07,07,5.20
2018,10,20,07,08,5.20
2018,10,20,07,09,5.20
2018,10,20,07,10,5.10
2018,10,20,07,11,5.10
2018,10,20,07,12,5.10
2018,10,20,07,13,5.10
2018,10,20,07,14,5.00
2018,10,20,07,15,5.00
2018,10,20,07,16,5.00
2018,10,20,07,17,4.90
2018,10,20,07,18,4.90
2018,10,20,07,19,4.90
2018,10,20,07,20,4.90
2018,10,20,07,21,4.90
2018,10,20,07,22,5.00
2018,10,20,07,23,5.00
2018,10,20,07,24,5.00
2018,10,20,07,25,5.00
2018,10,20,07,26,5.00
2018,10,20,07,27,5.00
2018,10,20,07,28,5.00
2018,10,20,07,29,5.00
2018,10,20,07,30,5.00
2018,10,20,07,31,5.00
2018,10,20,07,32,5.00
2018,10,20,07,33,5.10
2018,10,20,07,34,5.10
2018,10,20,07,35,5.10
2018,10,20,07,36,5.10
2018,10,20,07,37,5.10
2018,10,20,07,38,5.10
2018,10,20,07,39,5.00
2018,10,20,07,40,5.00
2018,10,20,07,41,5.00
2018,10,20,07,42,5.00
2018,10,20,07,43,4.90
2018,10,20,07,44,4.90
2018,10,20,07,45,4.90
2018,10,20,07,46,4.90
2018,10,20,07,47,4.90
2018,10,20,07,48,4.90
2018,10,20,07,49,4.90
2018,10,20,07,50,4.90
2018,10,20,07,51,4.90
2018,10,20,07,52,4.90
2018,10,20,07,53,5.00
2018,10,20,07,54,5.20
2018,10,20,07,55,5.20
2018,10,20,07,56,5.30
2018,10,20,07,57,5.30
2018,10,20,07,58,5.30
2018,10,20,07,59,5.30
2018,10,20,08,00,5.30
2018,10,20,08,01,5.30
2018,10,20,08,02,5.30
2018,10,20,08,03,5.20
2018,10,20,08,04,5.20
2018,10,20,08,05,5.20
2018,10,20,08,06,5.10
2018,10,20,08,07,5.10
2018,10,20,08,08,5.00
2018,10,20,08,09,5.00
2018,10,20,08,10,4.90
2018,10,20,08,11,4.90
2018,10,20,08,12,4.90
2018,10,20,08,13,4.80
2018,10,20,08,14,4.80
2018,10,20,08,15,4.80
2018,10,20,08,16,4.80
2018,10,20,08,17,4.80
2018,10,20,08,18,4.80
2018,10,20,08,19,4.80
2018,10,20,08,20,4.90
2018,10,20,08,21,4.90
2018,10,20,08,22,4.90
2018,10,20,08,23,4.90
2018,10,20,08,24,4.90
2018,10,20,08,25,4.90
2018,10,20,08,26,4.90
2018,10,20,08,27,4.90
2018,10,20,08,28,4.90
2018,10,20,08,29,4.90
2018,10,20,08,30,4.90
2018,10,20,08,31,4.90
2018,10,20,08,32,4.90
2018,10,20,08,33,4.90
2018,10,20,08,34,4.90
2018,10,20,08,35,4.90
2018,10,20,08,36,5.00
2018,10,20,08,37,5.00
2018,10,20,08,38,5.10
2018,10,20,08,39,5.10
2018,10,20,08,40,5.20
2018,10,20,08,41,5.20
2018,10,20,08,42,5.30
2018,10,20,08,43,5.30
2018,10,20,08,44,5.30
2018,10,20,08,45,5.30
2018,10,20,08,46,5.30
2018,10,20,08,47,5.30
2018,10,20,08,48,5.30
2018,10,20,08,49,5.30
2018,10,20,08,50,5.30
2018,10,20,08,51,5.30
2018,10,20,08,52,5.30
2018,10,20,08,53,5.30
2018,10,20,08,54,5.30
2018,10,20,08,55,5.30
2018,10,20,08,56,5.30
2018,10,20,08,57,5.30
2018,10,20,08,58,5.30
2018,10,20,08,59,5.20
2018,10,20,09,00,5.20
2018,10,20,09,01,5.20
2018,10,20,09,02,5.20
2018,10,20,09,03,5.20
2018,10,20,09,04,5.20
2018,10,20,09,05,5.20
2018,10,20,09,06,5.20
2018,10,20,09,07,5.20
2018,10,20,09,08,5.20
2018,10,20,09,09,5.20
2018,10,20,09,10,5.20
2018,10,20,09,11,5.20
2018,10,20,09,12,5.20
2018,10,20,09,13,5.20
2018,10,20,09,14,5.20
2018,10,20,09,15,5.20
2018,10,20,09,16,5.20
2018,10,20,09,17,5.20
2018,10,20,09,18,5.20
2018,10,20,09,19,5.20
2018,10,20,09,20,5.20
2018,10,20,09,21,5.20
2018,10,20,09,22,5.20
2018,10,20,09,23,5.20
2018,10,20,09,24,5.20
2018,10,20,09,25,5.30
2018,10,20,09,26,5.30
2018,10,20,09,27,5.40
2018,10,20,09,28,5.50
2018,10,20,09,29,5.60
2018,10,20,09,30,5.70
2018,10,20,09,31,5.80
2018,10,20,09,32,5.80
2018,10,20,09,33,5.90
2018,10,20,09,34,5.90
2018,10,20,09,35,6.00
2018,10,20,09,36,6.00
2018,10,20,09,37,6.10
2018,10,20,09,38,6.10
2018,10,20,09,39,6.20
2018,10,20,09,40,6.20
2018,10,20,09,41,6.20
2018,10,20,09,42,6.20
2018,10,20,09,43,6.20
2018,10,20,09,44,6.30
2018,10,20,09,45,6.30
2018,10,20,09,46,6.30
2018,10,20,09,47,6.30
2018,10,20,09,48,6.40
2018,10,20,09,49,6.40
2018,10,20,09,50,6.50
2018,10,20,09,51,6.60
2018,10,20,09,52,6.70
2018,10,20,09,53,6.70
2018,10,20,09,54,6.80
2018,10,20,09,55,6.90
2018,10,20,09,56,6.90
2018,10,20,09,57,7.00
2018,10,20,09,58,7.00
2018,10,20,09,59,7.10
2018,10,20,10,00,7.10
2018,10,20,10,01,7.20
2018,10,20,10,02,7.20
2018,10,20,10,03,7.20
2018,10,20,10,04,7.20
2018,10,20,10,05,7.20
2018,10,20,10,06,7.20
2018,10,20,10,07,7.20
2018,10,20,10,08,7.20
2018,10,20,10,09,7.30
2018,10,20,10,10,7.30
2018,10,20,10,11,7.30
2018,10,20,10,12,7.40
2018,10,20,10,13,7.50
2018,10,20,10,14,7.50
2018,10,20,10,15,7.60
2018,10,20,10,16,7.60
2018,10,20,10,17,7.70
2018,10,20,10,18,7.70
2018,10,20,10,19,7.80
2018,10,20,10,20,7.80
2018,10,20,10,21,7.90
2018,10,20,10,22,7.90
2018,10,20,10,23,8.00
2018,10,20,10,24,8.10
2018,10,20,10,25,8.20
2018,10,20,10,26,8.20
2018,10,20,10,27,8.20
2018,10,20,10,28,8.30
2018,10,20,10,29,8.30
2018,10,20,10,30,8.30
2018,10,20,10,31,8.40
2018,10,20,10,32,8.40
2018,10,20,10,33,8.50
2018,10,20,10,34,8.50
2018,10,20,10,35,8.60
2018,10,20,10,36,8.70
2018,10,20,10,37,8.80
2018,10,20,10,38,8.90
2018,10,20,10,39,9.00
2018,10,20,10,40,9.00
2018,10,20,10,41,9.10
2018,10,20,10,42,9.20
2018,10,20,10,43,9.20
2018,10,20,10,44,9.30
2018,10,20,10,45,9.30
2018,10,20,10,46,9.40
2018,10,20,10,47,9.50
2018,10,20,10,48,9.60
2018,10,20,10,49,9.70
2018,10,20,10,50,9.80
2018,10,20,10,51,9.80
2018,10,20,10,52,9.90
2018,10,20,10,53,9.90
2018,10,20,10,54,10.00
2018,10,20,10,55,10.10
2018,10,20,10,56,10.20
2018,10,20,10,57,10.20
2018,10,20,10,58,10.30
2018,10,20,10,59,10.30
2018,10,20,11,00,10.40
2018,10,20,11,01,10.40
2018,10,20,11,02,10.40
2018,10,20,11,03,10.50
2018,10,20,11,04,10.50
2018,10,20,11,05,10.60
2018,10,20,11,06,10.70
2018,10,20,11,07,10.80
2018,10,20,11,08,10.80
2018,10,20,11,09,10.90
2018,10,20,11,10,10.90
2018,10,20,11,11,11.00
2018,10,20,11,12,11.00
2018,10,20,11,13,11.10
2018,10,20,11,14,11.20
2018,10,20,11,15,11.20
2018,10,20,11,16,11.30
2018,10,20,11,17,11.30
2018,10,20,11,18,11.30
2018,10,20,11,19,11.30
2018,10,20,11,20,11.30
2018,10,20,11,21,11.30
2018,10,20,11,22,11.30
2018,10,20,11,23,11.30
2018,10,20,11,24,11.30
2018,10,20,11,25,11.30
2018,10,20,11,26,11.30
2018,10,20,11,27,11.40
2018,10,20,11,28,11.40
2018,10,20,11,29,11.50
2018,10,20,11,30,11.50
2018,10,20,11,31,11.60
2018,10,20,11,32,11.60
2018,10,20,11,33,11.70
2018,10,20,11,34,11.80
2018,10,20,11,35,11.90
2018,10,20,11,36,11.90
2018,10,20,11,37,12.00
2018,10,20,11,38,12.10
2018,10,20,11,39,12.10
2018,10,20,11,40,12.10
2018,10,20,11,41,12.10
2018,10,20,11,42,12.10
2018,10,20,11,43,12.10
2018,10,20,11,44,12.10
2018,10,20,11,45,12.00
2018,10,20,11,46,11.90
2018,10,20,11,47,11.90
2018,10,20,11,48,11.90
2018,10,20,11,49,11.80
2018,10,20,11,50,11.80
2018,10,20,11,51,11.80
2018,10,20,11,52,11.80
2018,10,20,11,53,11.80
2018,10,20,11,54,11.80
2018,10,20,11,55,11.80
2018,10,20,11,56,11.80
2018,10,20,11,57,11.80
2018,10,20,11,58,11.90
2018,10,20,11,59,11.90
2018,10,20,12,00,11.90
2018,10,20,12,01,11.90
2018,10,20,12,02,11.90
2018,10,20,12,03,11.90
2018,10,20,12,04,11.90
2018,10,20,12,05,11.90
2018,10,20,12,06,11.90
2018,10,20,12,07,12.00
2018,10,20,12,08,12.00
2018,10,20,12,09,12.10
2018,10,20,12,10,12.20
2018,10,20,12,11,12.30
2018,10,20,12,12,12.30
2018,10,20,12,13,12.40
2018,10,20,12,14,12.40
2018,10,20,12,15,12.30
2018,10,20,12,16,12.30
2018,10,20,12,17,12.30
2018,10,20,12,18,12.30
2018,10,20,12,19,12.30
2018,10,20,12,20,12.30
2018,10,20,12,21,12.30
2018,10,20,12,22,12.30
2018,10,20,12,23,12.30
2018,10,20,12,24,12.30
2018,10,20,12,25,12.40
2018,10,20,12,26,12.40
2018,10,20,12,27,12.40
2018,10,20,12,28,12.50
2018,10,20,12,29,12.60
2018,10,20,12,30,12.60
2018,10,20,12,31,12.70
2018,10,20,12,32,12.70
2018,10,20,12,33,12.80
2018,10,20,12,34,12.80
2018,10,20,12,35,12.90
2018,10,20,12,36,12.90
2018,10,20,12,37,12.90
2018,10,20,12,38,12.90
2018,10,20,12,39,12.90
2018,10,20,12,40,12.90
2018,10,20,12,41,13.00
2018,10,20,12,42,13.00
2018,10,20,12,43,13.00
2018,10,20,12,44,13.00
2018,10,20,12,45,13.00
2018,10,20,12,46,13.10
2018,10,20,12,47,13.10
2018,10,20,12,48,13.10
2018,10,20,12,49,13.10
2018,10,20,12,50,13.20
2018,10,20,12,51,13.10
2018,10,20,12,52,13.10
2018,10,20,12,53,13.00
2018,10,20,12,54,12.90
2018,10,20,12,55,12.90
2018,10,20,12,56,12.80
2018,10,20,12,57,12.90
2018,10,20,12,58,12.90
2018,10,20,12,59,13.00
2018,10,20,13,00,13.00
2018,10,20,13,01,13.00
2018,10,20,13,02,13.00
2018,10,20,13,03,13.00
2018,10,20,13,04,13.00
2018,10,20,13,05,13.00
2018,10,20,13,06,13.00
2018,10,20,13,07,13.00
2018,10,20,13,08,13.00
2018,10,20,13,09,13.00
2018,10,20,13,10,13.10
2018,10,20,13,11,13.10
2018,10,20,13,12,13.10
2018,10,20,13,13,13.00
2018,10,20,13,14,13.00
2018,10,20,13,15,13.00
2018,10,20,13,16,13.00
2018,10,20,13,17,13.00
2018,10,20,13,18,13.00
2018,10,20,13,19,12.90
2018,10,20,13,20,12.90
2018,10,20,13,21,12.90
2018,10,20,13,22,12.90
2018,10,20,13,23,13.00
2018,10,20,13,24,13.00
2018,10,20,13,25,13.10
2018,10,20,13,26,13.10
2018,10,20,13,27,13.10
2018,10,20,13,28,13.20
2018,10,20,13,29,13.20
2018,10,20,13,30,13.20
2018,10,20,13,31,13.20
2018,10,20,13,32,13.20
2018,10,20,13,33,13.30
2018,10,20,13,34,13.20
2018,10,20,13,35,13.20
2018,10,20,13,36,13.20
2018,10,20,13,37,13.10
2018,10,20,13,38,13.10
2018,10,20,13,39,13.10
2018,10,20,13,40,13.10
2018,10,20,13,41,13.00
2018,10,20,13,42,12.90
2018,10,20,13,43,12.90
2018,10,20,13,44,12.90
2018,10,20,13,45,12.90
2018,10,20,13,46,13.00
2018,10,20,13,47,13.00
2018,10,20,13,48,13.00
2018,10,20,13,49,13.00
2018,10,20,13,50,13.10
2018,10,20,13,51,13.10
2018,10,20,13,52,13.10
2018,10,20,13,53,13.10
2018,10,20,13,54,13.10
2018,10,20,13,55,13.10
2018,10,20,13,56,13.10
2018,10,20,13,57,13.10
2018,10,20,13,58,13.10
2018,10,20,13,59,13.10
2018,10,20,14,00,13.10
2018,10,20,14,01,13.00
2018,10,20,14,02,13.10
2018,10,20,14,03,13.10
2018,10,20,14,04,13.10
2018,10,20,14,05,13.10
2018,10,20,14,06,13.20
2018,10,20,14,07,13.20
2018,10,20,14,08,13.20
2018,10,20,14,09,13.20
2018,10,20,14,10,13.20
2018,10,20,14,11,13.20
2018,10,20,14,12,13.20
2018,10,20,14,13,13.30
2018,10,20,14,14,13.30
2018,10,20,14,15,13.30
2018,10,20,14,16,13.30
2018,10,20,14,17,13.20
2018,10,20,14,18,13.20
2018,10,20,14,19,13.20
2018,10,20,14,20,13.20
2018,10,20,14,21,13.10
2018,10,20,14,22,13.10
2018,10,20,14,23,13.00
2018,10,20,14,24,12.90
2018,10,20,14,25,12.90
2018,10,20,14,26,12.80
2018,10,20,14,27,12.80
2018,10,20,14,28,12.70
2018,10,20,14,29,12.70
2018,10,20,14,30,12.60
2018,10,20,14,31,12.60
2018,10,20,14,32,12.60
2018,10,20,14,33,12.60
2018,10,20,14,34,12.50
2018,10,20,14,35,12.50
2018,10,20,14,36,12.40
2018,10,20,14,37,12.40
2018,10,20,14,38,12.40
2018,10,20,14,39,12.50
2018,10,20,14,40,12.50
2018,10,20,14,41,12.50
2018,10,20,14,42,12.60
2018,10,20,14,43,12.60
2018,10,20,14,44,12.50
2018,10,20,14,45,12.50
2018,10,20,14,46,12.50
2018,10,20,14,47,12.50
2018,10,20,14,48,12.50
2018,10,20,14,49,12.50
2018,10,20,14,50,12.60
2018,10,20,14,51,12.60
2018,10,20,14,52,12.60
2018,10,20,14,53,12.60
2018,10,20,14,54,12.60
2018,10,20,14,55,12.60
2018,10,20,14,56,12.50
2018,10,20,14,57,12.50
2018,10,20,14,58,12.50
2018,10,20,14,59,12.50
2018,10,20,15,00,12.50
2018,10,20,15,01,12.50
2018,10,20,15,02,12.50
2018,10,20,15,03,12.50
2018,10,20,15,04,12.50
2018,10,20,15,05,12.60
2018,10,20,15,06,12.60
2018,10,20,15,07,12.60
2018,10,20,15,08,12.70
2018,10,20,15,09,12.70
2018,10,20,15,10,12.70
2018,10,20,15,11,12.70
2018,10,20,15,12,12.70
2018,10,20,15,13,12.70
2018,10,20,15,14,12.80
2018,10,20,15,15,12.80
2018,10,20,15,16,12.90
2018,10,20,15,17,12.90
2018,10,20,15,18,12.90
2018,10,20,15,19,12.90
2018,10,20,15,20,12.90
2018,10,20,15,21,12.90
2018,10,20,15,22,13.00
2018,10,20,15,23,13.10
2018,10,20,15,24,13.10
2018,10,20,15,25,13.10
2018,10,20,15,26,13.10
2018,10,20,15,27,13.20
2018,10,20,15,28,13.20
2018,10,20,15,29,13.20
2018,10,20,15,30,13.30
2018,10,20,15,31,13.30
2018,10,20,15,32,13.30
2018,10,20,15,33,13.30
2018,10,20,15,34,13.30
2018,10,20,15,35,13.30
2018,10,20,15,36,13.30
2018,10,20,15,37,13.30
2018,10,20,15,38,13.30
2018,10,20,15,39,13.30
2018,10,20,15,40,13.30
2018,10,20,15,41,13.40
2018,10,20,15,42,13.40
2018,10,20,15,43,13.50
2018,10,20,15,44,13.50
2018,10,20,15,45,13.60
2018,10,20,15,46,13.60
2018,10,20,15,47,13.70
2018,10,20,15,48,13.70
2018,10,20,15,49,13.70
2018,10,20,15,50,13.70
2018,10,20,15,51,13.80
2018,10,20,15,52,13.80
2018,10,20,15,53,13.90
2018,10,20,15,54,13.90
2018,10,20,15,55,14.00
2018,10,20,15,56,14.10
2018,10,20,15,57,14.20
2018,10,20,15,58,14.30
2018,10,20,15,59,14.40
2018,10,20,16,00,14.40
2018,10,20,16,01,14.50
2018,10,20,16,02,14.50
2018,10,20,16,03,14.60
2018,10,20,16,04,14.60
2018,10,20,16,05,14.70
2018,10,20,16,06,14.70
2018,10,20,16,07,14.70
2018,10,20,16,08,14.80
2018,10,20,16,09,14.80
2018,10,20,16,10,14.80
2018,10,20,16,11,14.80
2018,10,20,16,12,14.90
2018,10,20,16,13,14.90
2018,10,20,16,14,14.90
2018,10,20,16,15,15.00
2018,10,20,16,16,15.10
2018,10,20,16,17,15.10
2018,10,20,16,18,15.20
2018,10,20,16,19,15.20
2018,10,20,16,20,15.30
2018,10,20,16,21,15.40
2018,10,20,16,22,15.40
2018,10,20,16,23,15.40
2018,10,20,16,24,15.40
2018,10,20,16,25,15.40
2018,10,20,16,26,15.40
2018,10,20,16,27,15.40
2018,10,20,16,28,15.40
2018,10,20,16,29,15.40
2018,10,20,16,30,15.30
2018,10,20,16,31,15.30
2018,10,20,16,32,15.10
2018,10,20,16,33,15.00
2018,10,20,16,34,14.90
2018,10,20,16,35,14.90
2018,10,20,16,36,14.80
2018,10,20,16,37,14.70
2018,10,20,16,38,14.70
2018,10,20,16,39,14.70
2018,10,20,16,40,14.60
2018,10,20,16,41,14.50
2018,10,20,16,42,14.40
2018,10,20,16,43,14.30
2018,10,20,16,44,14.10
2018,10,20,16,45,14.00
2018,10,20,16,46,13.90
2018,10,20,16,47,13.80
2018,10,20,16,48,13.70
2018,10,20,16,49,13.60
2018,10,20,16,50,13.50
2018,10,20,16,51,13.40
2018,10,20,16,52,13.30
2018,10,20,16,53,13.10
2018,10,20,16,54,13.00
2018,10,20,16,55,12.90
2018,10,20,16,56,12.80
2018,10,20,16,57,12.70
2018,10,20,16,58,12.60
2018,10,20,16,59,12.50
2018,10,20,17,00,12.40
2018,10,20,17,01,12.40
2018,10,20,17,02,12.30
2018,10,20,17,03,12.30
2018,10,20,17,04,12.20
2018,10,20,17,05,12.10
2018,10,20,17,06,12.10
2018,10,20,17,07,12.10
2018,10,20,17,08,12.00
2018,10,20,17,09,12.00
2018,10,20,17,10,11.90
2018,10,20,17,11,11.90
2018,10,20,17,12,11.90
2018,10,20,17,13,11.80
2018,10,20,17,14,11.80
2018,10,20,17,15,11.70
2018,10,20,17,16,11.70
2018,10,20,17,17,11.70
2018,10,20,17,18,11.70
2018,10,20,17,19,11.60
2018,10,20,17,20,11.60
2018,10,20,17,21,11.60
2018,10,20,17,22,11.60
2018,10,20,17,23,11.60
2018,10,20,17,24,11.60
2018,10,20,17,25,11.60
2018,10,20,17,26,11.60
2018,10,20,17,27,11.60
2018,10,20,17,28,11.60
2018,10,20,17,29,11.60
2018,10,20,17,30,11.50
2018,10,20,17,31,11.50
2018,10,20,17,32,11.40
2018,10,20,17,33,11.40
2018,10,20,17,34,11.30
2018,10,20,17,35,11.30
2018,10,20,17,36,11.20
2018,10,20,17,37,11.20
2018,10,20,17,38,11.10
2018,10,20,17,39,11.00
2018,10,20,17,40,11.00
2018,10,20,17,41,10.90
2018,10,20,17,42,10.90
2018,10,20,17,43,10.90
2018,10,20,17,44,10.80
2018,10,20,17,45,10.80
2018,10,20,17,46,10.70
2018,10,20,17,47,10.70